Location: Saint Louis
(38.6272°N, 90.1978°W)
Time: 22:22:59
(UTC-05:00)

ISS - Pass Details

Date: 12 June 2013
Orbit: 402 x 404 km, 51.6° (Epoch: 24 May)

Event Time Altitude Azimuth Distance (km) Brightness Sun altitude
Rises 00:26:19 0° 313° (NW) 2,316 1.3 -27.7°
Reaches altitude 10° 00:28:27 10° 321° (NW) 1,456 0.2 -27.8°
Enters shadow 00:29:22 17° 327° (NNW) 1,109 -0.5 -27.8°
